TimeMDT,TemperatureF,Dew PointF,Humidity,Sea Level PressureIn,VisibilityMPH,Wind Direction,Wind SpeedMPH,Gust SpeedMPH,PrecipitationIn,Events,Conditions,WindDirDegrees,DateUTC
12:09 AM,33.8,33.8,100,30.48,0.2,WSW,25.3,-,N/A,Fog,Fog,250,2013-09-19 06:09:00
12:29 AM,33.8,33.8,100,30.48,0.2,WSW,27.6,35.7,N/A,Fog,Fog,250,2013-09-19 06:29:00
12:49 AM,33.8,33.8,100,30.48,0.2,SW,27.6,-,N/A,Fog,Fog,220,2013-09-19 06:49:00
1:09 AM,33.8,33.8,100,30.48,0.2,SSW,19.6,-,N/A,Fog,Fog,210,2013-09-19 07:09:00
1:29 AM,35.6,33.8,93,30.48,0.8,SW,20.7,-,N/A,Thunderstorm,Overcast,230,2013-09-19 07:29:00
1:49 AM,35.6,33.8,93,30.48,10.0,SW,21.9,-,N/A,,Scattered Clouds,230,2013-09-19 07:49:00
2:09 AM,35.6,33.8,93,30.48,10.0,SW,19.6,-,N/A,Thunderstorm,Clear,230,2013-09-19 08:09:00
2:29 AM,35.6,33.8,93,30.48,10.0,SW,18.4,-,N/A,,Clear,230,2013-09-19 08:29:00
2:49 AM,35.6,33.8,93,30.47,10.0,WSW,21.9,-,N/A,,Clear,240,2013-09-19 08:49:00
3:09 AM,35.6,33.8,93,30.49,10.0,West,19.6,-,N/A,Thunderstorm,Mostly Cloudy,270,2013-09-19 09:09:00
3:29 AM,35.6,32.0,87,30.48,10.0,West,24.2,38.0,N/A,Snow-Thunderstorm,Light Thunderstorms and Snow,280,2013-09-19 09:29:00
3:49 AM,35.6,32.0,87,30.47,10.0,West,20.7,-,N/A,,Mostly Cloudy,260,2013-09-19 09:49:00
4:09 AM,35.6,32.0,87,30.46,10.0,West,19.6,-,N/A,Thunderstorm,Mostly Cloudy,260,2013-09-19 10:09:00
4:29 AM,35.6,32.0,87,30.46,10.0,West,19.6,-,N/A,,Scattered Clouds,260,2013-09-19 10:29:00
4:49 AM,35.6,32.0,87,30.46,10.0,WSW,19.6,-,N/A,Thunderstorm,Mostly Cloudy,250,2013-09-19 10:49:00
5:09 AM,35.6,32.0,87,30.47,10.0,WSW,25.3,33.4,N/A,,Scattered Clouds,240,2013-09-19 11:09:00
5:29 AM,35.6,32.0,87,30.46,10.0,WSW,25.3,-,N/A,,Scattered Clouds,240,2013-09-19 11:29:00
5:49 AM,35.6,32.0,87,30.48,10.0,WSW,24.2,-,N/A,,Mostly Cloudy,240,2013-09-19 11:49:00
6:09 AM,35.6,32.0,87,30.47,10.0,WSW,24.2,33.4,N/A,,Overcast,240,2013-09-19 12:09:00
6:29 AM,35.6,32.0,87,30.47,10.0,WSW,24.2,28.8,N/A,,Scattered Clouds,250,2013-09-19 12:29:00
6:49 AM,35.6,32.0,87,30.47,10.0,WSW,25.3,-,N/A,,Scattered Clouds,250,2013-09-19 12:49:00
7:09 AM,35.6,32.0,87,30.46,10.0,WSW,26.5,-,N/A,,Clear,250,2013-09-19 13:09:00
7:29 AM,35.6,32.0,87,30.47,10.0,West,25.3,-,N/A,,Mostly Cloudy,260,2013-09-19 13:29:00
7:49 AM,35.6,33.8,93,30.48,10.0,West,23.0,-,N/A,,Overcast,260,2013-09-19 13:49:00
8:09 AM,37.4,33.8,87,30.49,10.0,West,20.7,-,N/A,,Overcast,270,2013-09-19 14:09:00
8:29 AM,37.4,33.8,87,30.51,10.0,West,17.3,-,N/A,,Overcast,270,2013-09-19 14:29:00
8:49 AM,37.4,35.6,93,30.51,10.0,West,19.6,-,N/A,,Overcast,270,2013-09-19 14:49:00
9:09 AM,37.4,35.6,93,30.51,10.0,West,20.7,-,N/A,,Overcast,270,2013-09-19 15:09:00
9:29 AM,37.4,35.6,93,30.51,3.0,West,23.0,-,N/A,,Overcast,260,2013-09-19 15:29:00
9:49 AM,39.2,37.4,93,30.53,0.2,WSW,18.4,24.2,N/A,Fog,Fog,250,2013-09-19 15:49:00
10:09 AM,39.2,37.4,93,30.53,0.2,WSW,18.4,25.3,N/A,Fog,Fog,240,2013-09-19 16:09:00
10:29 AM,41.0,37.4,87,30.53,0.5,WSW,21.9,26.5,N/A,Fog,Fog,240,2013-09-19 16:29:00
10:49 AM,41.0,37.4,87,30.54,10.0,SW,20.7,29.9,N/A,,Overcast,230,2013-09-19 16:49:00
11:09 AM,42.8,37.4,81,30.53,10.0,SW,26.5,32.2,N/A,,Overcast,230,2013-09-19 17:09:00
11:29 AM,44.6,37.4,76,30.54,10.0,WSW,23.0,28.8,N/A,,Overcast,240,2013-09-19 17:29:00
11:49 AM,44.6,35.6,71,30.54,10.0,SW,21.9,34.5,N/A,,Overcast,230,2013-09-19 17:49:00
12:09 PM,42.8,33.8,70,30.53,10.0,West,28.8,35.7,N/A,,Mostly Cloudy,260,2013-09-19 18:09:00
12:12 PM,42.8,33.8,70,30.53,10.0,West,29.9,33.4,N/A,,Mostly Cloudy,260,2013-09-19 18:12:00
4:09 PM,50.0,23.0,35,30.53,10.0,West,27.6,39.1,N/A,,Clear,260,2013-09-19 22:09:00
4:29 PM,50.0,26.6,40,30.53,10.0,West,28.8,36.8,N/A,,Clear,260,2013-09-19 22:29:00
4:49 PM,50.0,26.6,40,30.53,10.0,West,26.5,36.8,N/A,,Clear,270,2013-09-19 22:49:00
5:09 PM,50.0,28.4,43,30.53,10.0,West,31.1,39.1,N/A,,Clear,270,2013-09-19 23:09:00
5:29 PM,48.2,28.4,46,30.53,10.0,West,25.3,36.8,N/A,,Clear,270,2013-09-19 23:29:00
5:49 PM,48.2,26.6,43,30.53,10.0,West,28.8,36.8,N/A,,Clear,270,2013-09-19 23:49:00
6:09 PM,46.4,26.6,46,30.54,10.0,West,25.3,34.5,N/A,,Clear,270,2013-09-20 00:09:00
6:29 PM,46.4,26.6,46,30.55,10.0,West,21.9,31.1,N/A,,Clear,270,2013-09-20 00:29:00
6:49 PM,44.6,24.8,46,30.55,10.0,West,26.5,-,N/A,,Clear,270,2013-09-20 00:49:00
7:09 PM,42.8,24.8,49,30.56,10.0,West,19.6,26.5,N/A,,Clear,270,2013-09-20 01:09:00
7:29 PM,42.8,24.8,49,30.56,10.0,WSW,16.1,-,N/A,,Clear,240,2013-09-20 01:29:00
7:49 PM,41.0,24.8,53,30.56,10.0,WSW,17.3,-,N/A,,Clear,240,2013-09-20 01:49:00
8:09 PM,41.0,23.0,49,30.57,10.0,West,20.7,-,N/A,,Clear,270,2013-09-20 02:09:00
8:29 PM,41.0,21.2,45,30.58,10.0,West,18.4,-,N/A,,Clear,270,2013-09-20 02:29:00
8:49 PM,41.0,19.4,42,30.58,10.0,West,15.0,-,N/A,,Clear,270,2013-09-20 02:49:00
9:09 PM,41.0,17.6,39,30.60,10.0,West,13.8,-,N/A,,Clear,270,2013-09-20 03:09:00
9:29 PM,41.0,17.6,39,30.59,10.0,West,16.1,-,N/A,,Clear,280,2013-09-20 03:29:00
9:49 PM,39.2,14.0,36,30.60,10.0,West,13.8,-,N/A,,Clear,280,2013-09-20 03:49:00
10:09 PM,39.2,15.8,39,30.60,10.0,WNW,12.7,-,N/A,,Clear,290,2013-09-20 04:09:00
10:29 PM,37.4,17.6,45,30.60,10.0,West,12.7,-,N/A,,Clear,270,2013-09-20 04:29:00
10:49 PM,37.4,19.4,48,30.60,10.0,West,13.8,-,N/A,,Clear,260,2013-09-20 04:49:00
11:09 PM,37.4,15.8,41,30.60,10.0,West,13.8,-,N/A,,Clear,260,2013-09-20 05:09:00
11:29 PM,37.4,14.0,38,30.60,10.0,West,12.7,-,N/A,,Clear,270,2013-09-20 05:29:00
11:49 PM,37.4,14.0,38,30.60,10.0,West,11.5,-,N/A,,Clear,260,2013-09-20 05:49:00